Location: Choisy
(48.7685°N, 2.4187°E)
Time: 19:07:24
(UTC+00:00)

Envisat - Pass Details

Date: 05 March 2024
Orbit: 762 x 764 km, 98.3° (Epoch: 24 April)

Event Time Altitude Azimuth Distance (km) Brightness Sun altitude
Rises 04:28:43 0° 6° (N) 3,244 6.5 -19.6°
Reaches altitude 10° 04:31:16 10° 356° (N) 2,313 5.6 -19.2°
Maximum altitude 04:35:38 30° 297° (WNW) 1,366 3.9 -18.5°
Enters shadow 04:35:59 29° 289° (WNW) 1,375 3.8 -18.5°
